Casper, WY

1:53 AM MST on December 11, 2019 (GMT -0700)
Natrona County International

Weather History for KCPR - October, 2019

Change the Weather History Date:

Wednesday, October 30, 2019

  Actual Average Record
Temperature  
Mean Temperature 5 °F 40 °F  
Max Temperature 19 °F 54 °F 75 °F (1950)
Min Temperature -9 °F 28 °F -3 °F (1971)
Degree Days  
Heating Degree Days 60 24  
Month to date heating degree days 826 590  
Since 1 July heating degree days 997 875  
Cooling Degree Days 0 0  
Month to date cooling degree days 0 0  
Year to date cooling degree days 441 422  
Moisture  
Dew Point 0 °F    
Average Humidity 70    
Maximum Humidity 83    
Minimum Humidity 56    
Precipitation  
Precipitation 0.00 in 0.03 in 0.31 in (1974)
Month to date precipitation 1.29 1.08  
Year to date precipitation 11.99 11.24  
Snow  
Snow 0.00 in 0.30 in - ()
Month to date snowfall 13.9 7.1  
Since 1 July snowfall 13.9 8.9  
Since 1 September snowfall 13.9 8.9  
Snow Depth 2.00 in    
Sea Level Pressure  
Sea Level Pressure 30.52 in    
Wind  
Wind Speed 18 mph (SW)    
Max Wind Speed 29 mph    
Max Gust Speed 37 mph    
Visibility 10 miles    
Events      
T = Trace of Precipitation, MM = Missing Value Source: NWS Daily Summary

Daily Weather History Graph

Daily Weather History Graph

Search for Another Location

Airport or City:

Astronomy

Oct. 30, 2019 Rise Set
Actual Time 7:37 AM MDT 6:00 PM MDT
Civil Twilight 7:08 AM MDT 6:30 PM MDT
Nautical Twilight 6:34 AM MDT 7:03 PM MDT
Astronomical Twilight 6:01 AM MDT 7:36 PM MDT
Moon 10:27 AM MDT (10/30) 8:07 PM MDT (10/30)
Length of Visible Light 11h 22m
Length of Day
10h 23m
Waxing Crescent, 9% of the Moon is Illuminated
Oct 30
Waxing Crescent
Nov 4
First Quarter
Nov 12
Full
Nov 19
Last Quarter
Nov 26
New

Hourly Weather History & Observations

Time (MDT) Temp. Windchill Dew Point Humidity Pressure Visibility Wind Dir Wind Speed Gust Speed Precip Events Conditions
12:53 AM -8.0 °F -23.9 °F -11.9 °F 83% 30.60 in 10.0 mi WSW 8.1 mph - N/A   Clear
1:53 AM -7.1 °F -21.4 °F -11.0 °F 83% 30.60 in 10.0 mi WSW 6.9 mph - N/A   Clear
2:53 AM -8.0 °F -26.1 °F -13.0 °F 79% 30.60 in 10.0 mi WSW 10.4 mph - N/A   Clear
3:53 AM -6.0 °F -22.6 °F -11.0 °F 79% 30.58 in 10.0 mi SSW 9.2 mph - N/A   Clear
4:53 AM -2.9 °F -16.5 °F -7.1 °F 82% 30.58 in 10.0 mi WSW 6.9 mph - N/A   Clear
5:53 AM -0.0 °F -18.7 °F -5.1 °F 79% 30.57 in 10.0 mi SW 13.8 mph - N/A   Clear
6:53 AM -0.9 °F -21.9 °F -6.0 °F 79% 30.59 in 10.0 mi SSW 17.3 mph - N/A   Clear
7:53 AM 1.0 °F -18.0 °F -5.1 °F 75% 30.61 in 10.0 mi SW 15.0 mph - N/A   Clear
8:53 AM 3.0 °F -15.5 °F -4.0 °F 73% 30.60 in 10.0 mi SW 15.0 mph - N/A   Clear
9:53 AM 7.0 °F -11.6 °F -2.0 °F 67% 30.58 in 10.0 mi SSW 17.3 mph 26.5 mph N/A   Clear
10:53 AM 9.0 °F -9.5 °F -0.9 °F 64% 30.58 in 10.0 mi SSW 18.4 mph 28.8 mph N/A   Clear
11:53 AM 12.0 °F -6.9 °F -0.0 °F 59% 30.56 in 10.0 mi SSW 21.9 mph - N/A   Clear
1:53 PM 15.1 °F -4.0 °F 5.0 °F 64% 30.51 in 10.0 mi SSW 25.3 mph 34.5 mph N/A   Clear
2:53 PM 17.1 °F -0.3 °F 5.0 °F 59% 30.48 in 10.0 mi SSW 21.9 mph 32.2 mph N/A   Clear
3:53 PM 18.0 °F 0.9 °F 7.0 °F 62% 30.47 in 10.0 mi SSW 21.9 mph 33.4 mph N/A   Clear
4:53 PM 18.0 °F 0.9 °F 6.1 °F 60% 30.45 in 10.0 mi SSW 21.9 mph 27.6 mph N/A   Clear
5:53 PM 17.1 °F 0.6 °F 6.1 °F 62% 30.43 in 10.0 mi SSW 19.6 mph 26.5 mph N/A   Clear
6:53 PM 17.1 °F 1.0 °F 6.1 °F 62% 30.45 in 10.0 mi SW 18.4 mph - N/A   Clear
7:53 PM 16.0 °F -1.3 °F 5.0 °F 62% 30.44 in 10.0 mi SSW 20.7 mph - N/A   Clear
8:53 PM 16.0 °F -0.4 °F 5.0 °F 62% 30.44 in 10.0 mi SSW 18.4 mph 31.1 mph N/A   Clear
9:53 PM 17.1 °F 0.1 °F 5.0 °F 59% 30.44 in 10.0 mi SW 20.7 mph - N/A   Clear
10:53 PM 16.0 °F -1.7 °F 5.0 °F 62% 30.42 in 10.0 mi SSW 21.9 mph 32.2 mph N/A   Clear
11:53 PM 16.0 °F -1.7 °F 5.0 °F 62% 30.40 in 10.0 mi SSW 21.9 mph 29.9 mph N/A   Clear